Showing default

ADRAS-J, 58992

Orbit data source: Space-Track

ADRAS-J, 58992 is a payload satellite owned by Astroscale (JP) in SSO that was launched on Sun, 18 Feb 2024 UTC via an ELECTRON launch vehicle from the Rocket Lab Launch Complex (RLLC). Payload-class satellites include a variety of spacecraft equipped with specific instruments for various scientific and technological missions. These include communications satellites like Starlink; space stations such as the ISS; scientific satellites like the Hubble; Earth observation satellites from companies like Planet Labs, Umbra, and HawkEye 360; GPS; miniature CubeSats for education and research; and military/defense satellites.

Loading next visibility...
Identifier
58992, 2024-034A
Orbit
SSO
Country
Flag of JPJP / JPN
Related business
Manufacturer
Astroscale
Mission
Operational Commercial Technology
Bus & Motor
ELSA, Unknown motor
Mass
150 kg wet, ~120 kg dry
Launch date (UTC)
2024-02-18 (2 years ago)
Launch vehicle
ELECTRON
Launch site
Rocket Lab Launch Complex (RLLC)
Object type
Payload
Rocket body
Debris
Shape & HBR
Box + 2 Pan, 2.0 m
Radar Cross Section
1.913 m², Large (>1 m²)

Expand to show TLE details & history
Last TLE update: 6 hours ago

TLE from 6 hours ago
0 ADRAS-J
1 58992U 24034A   26036.71282588  .00003408  00000-0  23080-3 0  9995
2 58992  98.2279  53.8328 0044920 210.7597 149.0995 15.06450390107492
Epoch: 2026-02-05T17:06Z
TLE epoch observation values (Epoch: 2026-02-05T17:06:28.156Z)
Latitude
0.00002°
Longitude
21.35437°
Altitude
576.839 km
Speed
7.558 km/s
True Right ascension
03h 35m 19s
True Declination
0° 00' 00"
Sunlit
Object was in daylight at epoch
Visualization orbit readout
Latitude
Unknown
Longitude
Unknown
Altitude
Unknown
Speed
Unknown
Apparent Right ascension
Unknown
Apparent Declination
Unknown
Sunlit
N/A
Visualization observer readout
Local Sidereal Time
00:56:48
Azimuth
Unknown
Elevation
Unknown
Doppler factor
Unknown
Orbital elements
Apogee altitude
575.172 km
Perigee altitude
512.983 km
Semi-major axis
6,922.215 km
Eccentricity
0.00449
Inclination
98.2279°
RAAN
53.8328°
Arg. of periapsis
210.7597°
True anomaly
149.36258°
Mean anomaly
149.0995°
Eccentric anomaly
149.23117°
Mean motion
3.76856 °/min
Orbital period
95.53 mins
BSTAR
0.0002308
Loading maneuver chart data...
Computing Atmospheric mass density...
Loading historical data...
Loading historical data...
Loading historical data...
Loading historical data...
Loading historical data...
Loading historical data...
Loading historical data...
Other satellites on launch #34 in the year 2024 (2024-02-18 UTC)

Documentation

Showing up to 5 results
|